Date,TemperatureHighF,TemperatureAvgF,TemperatureLowF,DewpointHighF,DewpointAvgF,DewpointLowF,HumidityHigh,HumidityAvg,HumidityLow,PressureMaxIn,PressureMinIn,WindSpeedMaxMPH,WindSpeedAvgMPH,GustSpeedMaxMPH,PrecipitationSumIn
2013-1-1,26,17,11,20,15,10,100,91,77,30.47,30.29,12,2,17,0.00
2013-1-2,37,26,12,31,22,9,94,83,71,30.46,30.25,8,2,13,0.00
2013-1-3,33,24,15,25,19,13,96,82,57,30.60,30.45,8,2,14,0.00
2013-1-4,39,21,10,21,13,7,93,74,44,30.48,30.28,6,2,10,0.00
2013-1-5,45,27,10,28,18,8,93,72,51,30.45,30.21,9,3,15,0.00
2013-1-6,42,28,15,25,20,13,92,73,48,30.51,30.24,11,3,21,0.00
2013-1-7,42,30,19,28,24,18,96,77,56,30.24,30.13,149,3,149,0.00
2013-1-8,42,26,12,33,23,12,100,89,62,30.38,30.05,6,2,10,0.00
2013-1-9,47,33,22,31,27,20,100,79,52,30.60,30.38,8,2,14,0.00
2013-1-10,39,35,31,35,32,27,100,91,69,30.49,29.86,8,2,13,0.07
2013-1-11,42,34,21,42,34,15,100,96,78,30.04,29.61,13,2,20,0.01
2013-1-12,21,16,8,15,7,4,82,69,52,30.36,30.04,11,3,18,0.00
2013-1-13,24,13,5,8,4,0,83,70,46,30.51,30.34,7,2,12,0.00
2013-1-14,27,16,5,14,8,2,88,73,51,30.61,30.49,7,2,11,0.00
2013-1-15,31,21,12,19,14,9,92,75,56,30.50,30.22,9,3,17,0.00
2013-1-16,55,38,20,32,26,12,88,65,31,30.49,30.15,9,3,17,0.00
2013-1-17,51,37,27,34,29,25,92,75,47,30.66,30.44,7,2,9,0.00
2013-1-18,53,39,32,35,30,27,82,70,44,30.44,30.13,10,4,16,0.00
2013-1-19,57,43,27,30,25,19,85,54,23,30.52,30.11,12,4,20,0.00
2013-1-20,28,22,18,20,13,8,80,68,57,30.60,30.45,9,2,14,0.00
2013-1-21,22,14,12,15,9,6,86,80,70,30.60,30.47,9,2,11,0.00
2013-1-22,26,19,12,16,10,5,80,69,57,30.50,30.37,8,2,13,0.00
2013-1-23,36,23,13,22,15,5,91,72,53,30.65,30.31,13,4,20,0.00
2013-1-24,21,13,5,10,4,0,86,68,45,30.66,30.30,10,4,16,0.00
2013-1-25,55,34,17,30,22,10,88,66,24,30.42,30.32,6,1,9,0.00
2013-1-26,55,39,26,37,27,22,91,65,29,30.38,30.13,15,4,23,0.00
2013-1-27,42,39,33,42,39,33,100,98,82,30.13,29.91,8,2,14,0.05
2013-1-28,38,34,30,37,34,29,99,99,99,30.04,29.83,9,1,14,0.01
2013-1-29,36,33,29,34,32,26,100,93,77,29.99,29.86,15,5,25,0.00
2013-1-30,29,22,19,29,16,12,99,76,61,30.13,29.96,19,6,30,0.00
2013-1-31,21,14,9,14,2,-5,81,60,41,30.56,30.12,14,5,27,0.00